Tracking 18843 objects as of 20-November-2017
HD Live streaming from Space Station
objects crossing your sky now

FENGYUN 1C DEB

Track FENGYUN 1C DEB now!
10-day predictions


NORAD ID: 37069
Int'l Code: 1999-025EFD
Perigee: 817.0 km
Apogee: 1,513.1 km
Inclination: 95.8 °
Period: 108.5 minutes
Semi major axis: 7536 km
RCS: 0.0144 m2 (small)
Launch date: May 10, 1999
Source: People's Republic of China (PRC)
Launch site: Taiyaun Space Center, China (TSC)

Note: This is SATELLITE DEBRIS
aabbcc
Your satellite tracking list
Your tracking list is empty




NASA's NSSDC Master Catalog

Two Line Element Set (TLE):
1 37069U 99025EFD 17323.56587163  .00000249  00000-0  32966-3 0  9991
2 37069  95.8464  75.5168 0461812 165.7357 195.7341 13.27047406485530
Source of the keplerian elements: AFSPC